TimeCST,TemperatureF,Dew PointF,Humidity,Sea Level PressureIn,VisibilityMPH,Wind Direction,Wind SpeedMPH,Gust SpeedMPH,PrecipitationIn,Events,Conditions,WindDirDegrees,DateUTC
12:15 AM,28.0,24.1,85,30.51,10.0,Calm,Calm,-,N/A,,Clear,0,2013-01-10 06:15:00
12:35 AM,27.9,23.5,84,30.50,10.0,Calm,Calm,-,N/A,,Clear,0,2013-01-10 06:35:00
12:55 AM,28.0,23.9,84,30.50,10.0,Calm,Calm,-,N/A,,Clear,0,2013-01-10 06:55:00
2:15 AM,25.9,23.0,89,30.50,10.0,Calm,Calm,-,N/A,,Clear,0,2013-01-10 08:15:00
2:35 AM,25.0,22.6,91,30.50,10.0,Calm,Calm,-,N/A,,Clear,0,2013-01-10 08:35:00
2:55 AM,25.5,23.4,92,30.50,10.0,Calm,Calm,-,N/A,,Clear,0,2013-01-10 08:55:00
3:15 AM,25.7,24.3,94,30.49,10.0,Calm,Calm,-,N/A,,Clear,0,2013-01-10 09:15:00
3:35 AM,25.2,23.4,93,30.49,10.0,East,3.5,-,N/A,,Clear,90,2013-01-10 09:35:00
3:55 AM,25.2,23.4,93,30.49,10.0,Calm,Calm,-,N/A,,Clear,0,2013-01-10 09:55:00
4:15 AM,24.1,22.6,94,30.48,10.0,Calm,Calm,-,N/A,,Clear,0,2013-01-10 10:15:00
4:35 AM,24.3,22.8,94,30.47,10.0,Calm,Calm,-,N/A,,Clear,0,2013-01-10 10:35:00
4:55 AM,24.4,22.8,94,30.48,10.0,Calm,Calm,-,N/A,,Clear,0,2013-01-10 10:55:00
5:15 AM,24.6,22.8,93,30.48,10.0,Calm,Calm,-,N/A,,Clear,0,2013-01-10 11:15:00
5:35 AM,24.8,23.0,93,30.48,10.0,Calm,Calm,-,N/A,,Clear,0,2013-01-10 11:35:00
5:55 AM,24.8,23.0,93,30.48,10.0,East,3.5,-,N/A,,Clear,100,2013-01-10 11:55:00
6:15 AM,25.0,23.2,93,30.48,10.0,East,3.5,-,N/A,,Clear,100,2013-01-10 12:15:00
6:35 AM,25.3,23.2,91,30.48,10.0,Calm,Calm,-,N/A,,Clear,0,2013-01-10 12:35:00
6:55 AM,25.0,22.8,91,30.48,10.0,East,3.5,-,N/A,,Clear,80,2013-01-10 12:55:00
7:15 AM,24.4,22.1,91,30.48,10.0,East,3.5,-,N/A,,Clear,80,2013-01-10 13:15:00
7:35 AM,25.7,22.8,89,30.48,10.0,East,3.5,-,N/A,,Clear,90,2013-01-10 13:35:00
7:55 AM,27.0,23.5,87,30.48,10.0,East,4.6,-,N/A,,Clear,90,2013-01-10 13:55:00
8:15 AM,28.6,24.6,85,30.47,10.0,East,4.6,-,N/A,,Clear,80,2013-01-10 14:15:00
8:35 AM,31.1,26.1,82,30.47,10.0,ESE,6.9,-,N/A,,Clear,110,2013-01-10 14:35:00
8:55 AM,32.9,27.1,79,30.46,10.0,ESE,8.1,-,N/A,,Clear,110,2013-01-10 14:55:00
9:15 AM,34.3,27.9,77,30.45,10.0,ESE,9.2,-,N/A,,Clear,110,2013-01-10 15:15:00
9:35 AM,35.6,28.4,75,30.45,10.0,ESE,9.2,-,N/A,,Clear,120,2013-01-10 15:35:00
9:55 AM,35.8,28.4,75,30.45,10.0,ESE,12.7,-,N/A,,Clear,120,2013-01-10 15:55:00
10:15 AM,35.8,27.9,73,30.45,10.0,ESE,9.2,-,N/A,,Clear,110,2013-01-10 16:15:00
10:35 AM,36.3,28.6,74,30.43,10.0,ESE,12.7,-,N/A,,Clear,120,2013-01-10 16:35:00
10:55 AM,37.0,28.4,71,30.40,10.0,East,15.0,-,N/A,,Clear,100,2013-01-10 16:55:00
11:15 AM,37.8,28.8,70,30.40,10.0,ESE,12.7,17.3,N/A,,Clear,120,2013-01-10 17:15:00
11:35 AM,37.8,28.6,69,30.38,10.0,ESE,11.5,17.3,N/A,,Clear,110,2013-01-10 17:35:00
11:55 AM,38.1,28.9,70,30.37,10.0,SE,12.7,-,N/A,,Clear,130,2013-01-10 17:55:00
12:15 PM,38.3,28.9,69,30.35,10.0,SE,15.0,18.4,N/A,,Clear,130,2013-01-10 18:15:00
12:35 PM,38.5,29.5,70,30.34,10.0,ESE,12.7,17.3,N/A,,Clear,110,2013-01-10 18:35:00
1:15 PM,38.5,29.5,70,30.31,10.0,ESE,13.8,-,N/A,,Clear,110,2013-01-10 19:15:00
1:35 PM,38.7,29.7,70,30.30,10.0,ESE,12.7,-,N/A,,Clear,110,2013-01-10 19:35:00
1:55 PM,38.7,29.3,69,30.28,10.0,ESE,12.7,-,N/A,,Clear,110,2013-01-10 19:55:00
2:15 PM,39.2,29.1,67,30.27,10.0,ESE,12.7,-,N/A,,Clear,110,2013-01-10 20:15:00
2:35 PM,39.0,28.8,67,30.26,10.0,ESE,12.7,-,N/A,,Clear,110,2013-01-10 20:35:00
2:55 PM,38.7,28.4,67,30.25,10.0,ESE,13.8,-,N/A,,Scattered Clouds,110,2013-01-10 20:55:00
3:15 PM,38.7,28.6,67,30.24,10.0,ESE,12.7,-,N/A,,Mostly Cloudy,110,2013-01-10 21:15:00
3:35 PM,38.7,28.9,68,30.25,10.0,ESE,12.7,-,N/A,,Overcast,120,2013-01-10 21:35:00
3:55 PM,38.7,29.1,69,30.23,10.0,ESE,13.8,-,N/A,,Overcast,120,2013-01-10 21:55:00
4:15 PM,38.1,30.0,73,30.22,10.0,ESE,12.7,17.3,N/A,,Overcast,110,2013-01-10 22:15:00
4:35 PM,37.8,30.9,76,30.20,10.0,ESE,15.0,-,N/A,,Overcast,110,2013-01-10 22:35:00
4:55 PM,37.8,31.1,77,30.21,10.0,SE,12.7,18.4,N/A,,Overcast,130,2013-01-10 22:55:00
5:15 PM,37.6,31.3,78,30.19,10.0,ESE,11.5,-,N/A,,Overcast,120,2013-01-10 23:15:00
5:35 PM,37.4,31.8,80,30.18,7.0,ESE,12.7,17.3,N/A,,Overcast,120,2013-01-10 23:35:00
5:55 PM,37.2,32.4,83,30.17,10.0,ESE,13.8,21.9,N/A,,Overcast,120,2013-01-10 23:55:00
6:15 PM,37.0,32.7,84,30.15,7.0,ESE,18.4,23.0,N/A,,Overcast,120,2013-01-11 00:15:00
6:35 PM,36.9,33.4,87,30.14,7.0,SE,17.3,21.9,N/A,,Overcast,130,2013-01-11 00:35:00
6:55 PM,36.7,34.3,91,30.13,5.0,ESE,12.7,23.0,N/A,,Overcast,120,2013-01-11 00:55:00
7:15 PM,36.7,34.9,93,30.11,7.0,ESE,16.1,-,N/A,,Overcast,120,2013-01-11 01:15:00
7:35 PM,36.9,35.4,95,30.10,5.0,SE,12.7,19.6,N/A,,Overcast,130,2013-01-11 01:35:00
7:55 PM,36.7,35.6,96,30.08,7.0,ESE,11.5,17.3,N/A,,Overcast,120,2013-01-11 01:55:00
8:15 PM,36.9,35.6,95,30.08,7.0,SE,12.7,20.7,N/A,,Overcast,130,2013-01-11 02:15:00
8:35 PM,37.2,35.8,95,30.08,7.0,SE,12.7,17.3,N/A,,Overcast,130,2013-01-11 02:35:00
8:55 PM,37.2,36.0,95,30.06,5.0,SE,15.0,-,N/A,,Overcast,130,2013-01-11 02:55:00
9:15 PM,37.2,36.1,96,30.04,2.0,SE,16.1,19.6,N/A,,Overcast,130,2013-01-11 03:15:00
9:35 PM,37.4,36.5,97,30.03,5.0,SE,13.8,18.4,N/A,,Overcast,130,2013-01-11 03:35:00
9:55 PM,37.6,36.9,97,30.02,5.0,SE,15.0,20.7,N/A,,Overcast,130,2013-01-11 03:55:00
10:15 PM,37.9,37.4,98,30.01,3.0,SE,11.5,-,N/A,,Overcast,140,2013-01-11 04:15:00
10:35 PM,38.3,37.6,97,30.00,4.0,SE,12.7,-,N/A,,Overcast,140,2013-01-11 04:35:00
10:55 PM,38.8,38.3,98,29.99,3.0,SE,12.7,-,N/A,,Overcast,140,2013-01-11 04:55:00
11:15 PM,39.2,38.5,97,29.98,2.0,SSE,12.7,-,N/A,,Overcast,150,2013-01-11 05:15:00
11:35 PM,39.4,38.8,98,29.98,4.0,SE,13.8,-,N/A,,Overcast,140,2013-01-11 05:35:00
11:55 PM,41.0,40.5,98,29.96,7.0,SSE,18.4,21.9,N/A,,Overcast,150,2013-01-11 05:55:00